Location: Newark
(35.0589°N, 135.9944°E)
Time: 01:02:27
(UTC+00:00)

Hubble Space Telescope - Pass Details

Date: 29 September 2019
Orbit: 536 x 540 km, 28.5° (Epoch: 20 October)

Event Time Altitude Azimuth Distance (km) Brightness Sun altitude
Rises 10:28:41 0° 220° (SW) 2,668 4.7 -22.1°
Reaches altitude 10° 10:31:41 10° 198° (SSW) 1,779 3.4 -22.7°
Enters shadow 10:32:11 12° 192° (SSW) 1,669 3.2 -22.8°
